www.pogodaiklimat.ru

Погода и климат >> Архив погоды >> Перу >> Лима


АРХИВ ПОГОДЫ в Лиме

Время (UTC), дата Ветер
(напр.,м/с)
 
Видим.   Явления Облачность Т
(С)
Тd
(С)
f
(%)
Тe
(С)
Тes
(С)
Комфортность P
(гПа)
Po
(гПа)
Тmin
(С)
Tmax
(С)
R
(мм)
R24
(мм)
S
(см)
12 19.03 Ю 2 10 км 4/0
[Ci fib]
+19.9 +17.7 87 +23 +24 комфорт 1011.6 1010.0 +19.6
15 19.03 нст 3 10 км 1/0
[Ci fib]
+24.0 +18.1 70 +28 +42 душно 1012.0 1010.4
18 19.03 нст 3 10 км 6/0
[Ci fib]
+26.0 +18.3 63 +31 +47 очень
душно
1011.2 1009.6
00 20.03 Ю 5 10 км 6/0
[Ac trans]
+22.2 +18.4 79 +27 +27 душно 1010.8 1009.2 +27.1
03 20.03 Ю 5 10 км 6/0
[Ac trans]
+21.6 +17.9 79 +26 +26 душно 1012.6 1010.9
06 20.03 Ю 3 10 км 4/0
[Ac trans]
+20.6 +17.8 84 +25 +25 комфорт 1012.2 1010.6
09 20.03 Ю 3 10 км 6/0
[Ac trans]
+20.3 +17.7 85 +24 +24 комфорт 1010.7 1009.1
12 20.03 нст 1 10 км 6/0
[Ac trans]
+20.2 +17.8 86 +24 +25 комфорт 1012.3 1010.7 +19.9
18 20.03 нст 3 10 км 6/0
[Ac trans Ci fib]
+26.2 +18.0 61 +31 +43 очень
душно
1012.0 1010.4
00 21.03 Ю 6 10 км 8/0
[Ci fib]
+21.8 +17.5 77 +26 +26 душно 1011.5 1009.9 +26.8
03 21.03 Ю 5 10 км ясно +21.2 +17.5 79 +25 +25 комфорт 1012.9 1011.1
06 21.03 Ю 4 10 км 3/0
[Ac trans]
+20.4 +17.5 83 +24 +24 комфорт 1012.1 1010.5
09 21.03 Ю 2 10 км ясно +19.9 +17.6 87 +23 +23 комфорт 1011.3 1009.6
12 21.03 Ю 2 10 км 9/0
[Ac trans]
+20.1 +17.7 86 +24 +24 комфорт 1012.3 1010.5 +19.6
15 21.03 нст 3 10 км ясно +24.1 +18.4 70 +29 +42 душно 1013.1 1011.3
18 21.03 Ю 5 10 км ясно +25.6 +17.9 62 +30 +40 душно 1011.3 1009.5
21 21.03 Ю 5 10 км ясно +25.1 +17.7 64 +29 +32 душно 1009.7 1008.1
00 22.03 Ю 6 10 км 4/0
[Ci fib]
+22.1 +17.3 74 +27 +27 душно 1011.2 1009.6 +26.3
03 22.03 Ю 6 10 км 3/0
[Ac trans]
+21.1 +17.6 80 +25 +25 комфорт 1013.6 1011.8
06 22.03 Ю 3 10 км 6/0
[Ac trans]
+20.9 +17.8 82 +25 +25 комфорт 1013.7 1011.9
09 22.03 Ю 3 10 км 10/0 2000 м
[Ac trans]
+20.7 +17.9 84 +25 +25 комфорт 1012.6 1010.9
12 22.03 Ю 5 10 км 9/0
[Ac trans]
+21.1 +18.0 82 +25 +25 комфорт 1013.3 1011.5 +20.7
15 22.03 нст 4 10 км ясно +24.5 +18.5 69 +29 +40 душно 1013.6 1012.0
18 22.03 нст 5 10 км ясно +24.7 +18.5 68 +29 +39 душно 1012.6 1011.0
21 22.03 Ю 5 10 км 1/0
[Ci fib]
+24.2 +18.0 68 +28 +31 душно 1010.9 1009.1
00 23.03 Ю 5 10 км 4/0
[Ci fib]
+22.1 +17.7 76 +27 +27 душно 1011.6 1009.8 +25.9
03 23.03 Ю 6 10 км ясно +22.1 +16.9 72 +26 +26 душно 1013.3 1011.7
06 23.03 Ю 5 10 км 4/0
[Ac trans]
+20.9 +17.8 82 +25 +25 комфорт 1012.9 1011.3
09 23.03 Ю 3 10 км 6/0
[Ac trans]
+20.4 +17.8 85 +24 +24 комфорт 1012.3 1010.6
12 23.03 Ю 3 10 км 6/3 210 м
[St Ac trans]
+20.3 +18.6 90 +24 +25 комфорт 1013.2 1011.6 +20.0
15 23.03 нст 3 10 км 3/0
[Ci fib]
+24.5 +19.0 71 +29 +42 душно 1014.5 1012.9
21 23.03 нст 5 10 км 4/0
[Ci fib]
+25.0 +18.3 66 +29 +32 душно 1011.8 1010.2
00 24.03 Ю 6 10 км 9/0
[Ac trans Ci fib]
+22.1 +18.7 81 +27 +27 душно 1012.6 1011.0 +26.8
03 24.03 Ю 5 10 км 4/0
[Ac trans]
+22.2 +17.8 76 +27 +27 душно 1014.0 1012.2
06 24.03 Ю 5 10 км 9/0
[Ac trans]
+21.2 +18.4 84 +25 +25 комфорт 1013.2 1011.4
12 24.03 Ю 2 10 км 8/0
[Ac trans]
+20.5 +18.8 90 +25 +26 комфорт 1013.7 1011.7 +20.5
15 24.03 нст 3 10 км 6/0
[Ac trans]
+24.0 +19.2 75 +29 +38 душно 1014.1 1012.5
18 24.03 нст 4 10 км 6/0
[Ac trans]
+25.3 +18.8 67 +30 +38 душно 1012.8 1011.2
21 24.03 Ю 6 10 км {туман} ясно +24.4 +18.3 69 +29 +31 душно 1011.7 1010.1
00 25.03 Ю 6 10 км 6/0
[Ac trans Ci fib]
+22.3 +17.7 75 +27 +27 душно 1013.2 1011.6 +27.1
03 25.03 Ю 5 10 км ясно +21.7 +18.2 80 +26 +26 душно 1014.1 1012.5
06 25.03 Ю 5 10 км ясно +20.7 +18.5 87 +25 +25 комфорт 1013.4 1011.8
09 25.03 Ю 3 10 км 6/6 300 м
[St Ac trans]
+20.9 +18.3 85 +25 +25 комфорт 1012.5 1010.7
12 25.03 Ю 4 10 км 9/0
[Ac trans]
+20.9 +18.5 86 +25 +26 комфорт 1012.8 1011.0 +20.4
15 25.03 нст 4 10 км 1/0
[Ac trans]
+23.5 +18.9 75 +28 +37 душно 1013.5 1011.9
18 25.03 Ю 6 10 км 4/0
[Ci fib]
+25.6 +18.9 66 +31 +39 очень
душно
1011.3 1009.7
21 25.03 Ю 6 10 км 4/0
[Ci fib]
+24.1 +18.6 71 +29 +31 душно 1009.4 1007.6

 

Местоположение метеостанции Лима (Перу): широта -12.00 долгота -77.11 высота над уровнем моря 13 м.

В архиве по умолчанию представлена погода в Лиме за последнюю неделю. Архивные данные за месяц целиком и за предыдущие месяцы, начиная с января 2011 года, Вы можете получить, выбрав интересующий диапазон дат из раскрывающегося списка и нажав кнопку "Ввод!".


*Определитесь, кто Вы:
робот инопланетянин человек

Внимание! Время в таблицах - всемирное. Для получения местного времени необходимо прибавить поправку, которая равна -5 ч.

Смотрите также архив погоды в соседних городах и на ближайших метеорологических станциях:

Погода в Матукане (Перу) (81 км)
Погода в Тарме (Перу) (168 км)
Погода в Писко (Перу) (216 км)
Погода в Пуке (Перу) (243 км)
Погода в Уануко (Перу) (257 км)
Погода в Анте (Перу) (300 км)
Погода в Тинго Мария (Перу) (326 км)
Погода в Аякучо (Перу) (341 км)
Погода в Чимботе (Перу) (354 км)
Погода в Наске (Перу) (394 км)

Пояснения к столбцам:

Ветер - указаны скорость ветра в м/с - средняя за 10 мин, порывы в срок и между сроками (в фигурных скобках) и направление, откуда дует ветер: С - северный, СВ - северо-восточный, В - восточный, ЮВ - юго-восточный, Ю - южный, ЮЗ - юго-западный, З - западный, СЗ - северо-западный.
Видимость - горизонтальная дальность видимости в метрах или километрах. При видимости от 1 до 10 км при отсутствии осадков обычно наблюдается дымка, при ухудшении видимости до 1 км и менее - туман. В сухую погоду видимость может ухудшаться дымом, пылью или мглою.
Явления - указаны атмосферные явления, наблюдавшиеся в срок или в последний час перед сроком; фигурными скобками обозначены явления, наблюдавшиеся между сроками (за 1-3 часа до срока); квадратными скобками обозначены град или гололедные отложения с указанием их диаметра в мм.
Облачность - указаны через наклонную черту общая и нижняя облачность в баллах и высота нижней границы облаков в метрах; квадратными скобками обозначены формы облаков: Ci - перистые, Cs - перисто-слоистые, Cc - перисто-кучевые, Ac - высококучевые, As - высокослоистые, Sc - слоисто-кучевые, Ns - слоисто-дождевые, Cu - кучевые, Cb - кучево-дождевые. Подробнее классификацию облаков см. в Атласе облаков (PDF).
T - Температура воздуха - температура, измеренная на высоте 2 м над землей.
Td - Температура точки росы - температура, при понижении до которой содержащийся в воздухе водяной пар достигнет насыщения.
f - Относительная влажность воздуха - влажноcть воздуха, измеренная на высоте 2 м над землей.
Te - Эффективная температура - температура, которую ощущает одетый по сезону человек в тени. Характеристика душности погоды. При расчете учитывается влияние влажности воздуха и скорости ветра на теплоощущения человека.
Tes - Эффективная температура на солнце - температура, которую ощущает человек, с поправкой на солнечный нагрев. Характеристика знойности погоды. Зависит от высоты солнца над горизонтом, облачности и скорости ветра. Ночью, в пасмурную погоду, а также при ветре 12 м/с и более поправка равна нулю.
P - Атмосферное давление - приведенное к уровню моря атмосферное давление.
Po - Атмосферное давление - измеренное на уровне метеостанции атмосферное давление.
Tmin - Минимальная температура - минимум температуры воздуха на высоте 2 м над землей.
Tmax - Максимальная температура - максимум температуры воздуха на высоте 2 м над землей.
R - Количество осадков - Количество выпавших осадков за период времени, мм. При наведении курсора мыши на число - период времени, за который выпало указанное количество осадков.
R24 - Количество осадков - Количество выпавших осадков за 24 часа, мм.
S - Снежный покров - Высота снежного покрова, см. При наведении курсора мыши на число - состояние снежного покрова и степень покрытия местности в баллах.